Year,Month,Day,Hour,Minute,Value (Times are PST for insolation in W/m^2)
2021,08,08,00,00,0.00
2021,08,08,00,01,0.00
2021,08,08,00,02,0.00
2021,08,08,00,03,0.00
2021,08,08,00,04,0.00
2021,08,08,00,05,0.00
2021,08,08,00,06,0.00
2021,08,08,00,07,0.00
2021,08,08,00,08,0.00
2021,08,08,00,09,0.00
2021,08,08,00,10,0.00
2021,08,08,00,11,0.00
2021,08,08,00,12,0.00
2021,08,08,00,13,0.00
2021,08,08,00,14,0.00
2021,08,08,00,15,0.00
2021,08,08,00,16,0.00
2021,08,08,00,17,0.00
2021,08,08,00,18,0.00
2021,08,08,00,19,0.00
2021,08,08,00,20,0.00
2021,08,08,00,21,0.00
2021,08,08,00,22,0.00
2021,08,08,00,23,0.00
2021,08,08,00,24,0.00
2021,08,08,00,25,0.00
2021,08,08,00,26,0.00
2021,08,08,00,27,0.00
2021,08,08,00,28,0.00
2021,08,08,00,29,0.00
2021,08,08,00,30,0.00
2021,08,08,00,31,0.00
2021,08,08,00,32,0.00
2021,08,08,00,33,0.00
2021,08,08,00,34,0.00
2021,08,08,00,35,0.00
2021,08,08,00,36,0.00
2021,08,08,00,37,0.00
2021,08,08,00,38,0.00
2021,08,08,00,39,0.00
2021,08,08,00,40,0.00
2021,08,08,00,41,0.00
2021,08,08,00,42,0.00
2021,08,08,00,43,0.00
2021,08,08,00,44,0.00
2021,08,08,00,45,0.00
2021,08,08,00,46,0.00
2021,08,08,00,47,0.00
2021,08,08,00,48,0.00
2021,08,08,00,49,0.00
2021,08,08,00,50,0.00
2021,08,08,00,51,0.00
2021,08,08,00,52,0.00
2021,08,08,00,53,0.00
2021,08,08,00,54,0.00
2021,08,08,00,55,0.00
2021,08,08,00,56,0.00
2021,08,08,00,57,0.00
2021,08,08,00,58,0.00
2021,08,08,00,59,0.00
2021,08,08,01,00,0.00
2021,08,08,01,01,0.00
2021,08,08,01,02,0.00
2021,08,08,01,03,0.00
2021,08,08,01,04,0.00
2021,08,08,01,05,0.00
2021,08,08,01,06,0.00
2021,08,08,01,07,0.00
2021,08,08,01,08,0.00
2021,08,08,01,09,0.00
2021,08,08,01,10,0.00
2021,08,08,01,11,0.00
2021,08,08,01,12,0.00
2021,08,08,01,13,0.00
2021,08,08,01,14,0.00
2021,08,08,01,15,0.00
2021,08,08,01,16,0.00
2021,08,08,01,17,0.00
2021,08,08,01,18,0.00
2021,08,08,01,19,0.00
2021,08,08,01,20,0.00
2021,08,08,01,21,0.00
2021,08,08,01,22,0.00
2021,08,08,01,23,0.00
2021,08,08,01,24,0.00
2021,08,08,01,25,0.00
2021,08,08,01,26,0.00
2021,08,08,01,27,0.00
2021,08,08,01,28,0.00
2021,08,08,01,29,0.00
2021,08,08,01,30,0.00
2021,08,08,01,31,0.00
2021,08,08,01,32,0.00
2021,08,08,01,33,0.00
2021,08,08,01,34,0.00
2021,08,08,01,35,0.00
2021,08,08,01,36,0.00
2021,08,08,01,37,0.00
2021,08,08,01,38,0.00
2021,08,08,01,39,0.00
2021,08,08,01,40,0.00
2021,08,08,01,41,0.00
2021,08,08,01,42,0.00
2021,08,08,01,43,0.00
2021,08,08,01,44,0.00
2021,08,08,01,45,0.00
2021,08,08,01,46,0.00
2021,08,08,01,47,0.00
2021,08,08,01,48,0.00
2021,08,08,01,49,0.00
2021,08,08,01,50,0.00
2021,08,08,01,51,0.00
2021,08,08,01,52,0.00
2021,08,08,01,53,0.00
2021,08,08,01,54,0.00
2021,08,08,01,55,0.00
2021,08,08,01,56,0.00
2021,08,08,01,57,0.00
2021,08,08,01,58,0.00
2021,08,08,01,59,0.00
2021,08,08,02,00,0.00
2021,08,08,02,01,0.00
2021,08,08,02,02,0.00
2021,08,08,02,03,0.00
2021,08,08,02,04,0.00
2021,08,08,02,05,0.00
2021,08,08,02,06,0.00
2021,08,08,02,07,0.00
2021,08,08,02,08,0.00
2021,08,08,02,09,0.00
2021,08,08,02,10,0.00
2021,08,08,02,11,0.00
2021,08,08,02,12,0.00
2021,08,08,02,13,0.00
2021,08,08,02,14,0.00
2021,08,08,02,15,0.00
2021,08,08,02,16,0.00
2021,08,08,02,17,0.00
2021,08,08,02,18,0.00
2021,08,08,02,19,0.00
2021,08,08,02,20,0.00
2021,08,08,02,21,0.00
2021,08,08,02,22,0.00
2021,08,08,02,23,0.00
2021,08,08,02,24,0.00
2021,08,08,02,25,0.00
2021,08,08,02,26,0.00
2021,08,08,02,27,0.00
2021,08,08,02,28,0.00
2021,08,08,02,29,0.00
2021,08,08,02,30,0.00
2021,08,08,02,31,0.00
2021,08,08,02,32,0.00
2021,08,08,02,33,0.00
2021,08,08,02,34,0.00
2021,08,08,02,35,0.00
2021,08,08,02,36,0.00
2021,08,08,02,37,0.00
2021,08,08,02,38,0.00
2021,08,08,02,39,0.00
2021,08,08,02,40,0.00
2021,08,08,02,41,0.00
2021,08,08,02,42,0.00
2021,08,08,02,43,0.00
2021,08,08,02,44,0.00
2021,08,08,02,45,0.00
2021,08,08,02,46,0.00
2021,08,08,02,47,0.00
2021,08,08,02,48,0.00
2021,08,08,02,49,0.00
2021,08,08,02,50,0.00
2021,08,08,02,51,0.00
2021,08,08,02,52,0.00
2021,08,08,02,53,0.00
2021,08,08,02,54,0.00
2021,08,08,02,55,0.00
2021,08,08,02,56,0.00
2021,08,08,02,57,0.00
2021,08,08,02,58,0.00
2021,08,08,02,59,0.00
2021,08,08,03,00,0.00
2021,08,08,03,01,0.00
2021,08,08,03,02,0.00
2021,08,08,03,03,0.00
2021,08,08,03,04,0.00
2021,08,08,03,05,0.00
2021,08,08,03,06,0.00
2021,08,08,03,07,0.00
2021,08,08,03,08,0.00
2021,08,08,03,09,0.00
2021,08,08,03,10,0.00
2021,08,08,03,11,0.00
2021,08,08,03,12,0.00
2021,08,08,03,13,0.00
2021,08,08,03,14,0.00
2021,08,08,03,15,0.00
2021,08,08,03,16,0.00
2021,08,08,03,17,0.00
2021,08,08,03,18,0.00
2021,08,08,03,19,0.00
2021,08,08,03,20,0.00
2021,08,08,03,21,0.00
2021,08,08,03,22,0.00
2021,08,08,03,23,0.00
2021,08,08,03,24,0.00
2021,08,08,03,25,0.00
2021,08,08,03,26,0.00
2021,08,08,03,27,0.00
2021,08,08,03,28,0.00
2021,08,08,03,29,0.00
2021,08,08,03,30,0.00
2021,08,08,03,31,0.00
2021,08,08,03,32,0.00
2021,08,08,03,33,0.00
2021,08,08,03,34,0.00
2021,08,08,03,35,0.00
2021,08,08,03,36,0.00
2021,08,08,03,37,0.00
2021,08,08,03,38,0.00
2021,08,08,03,39,0.00
2021,08,08,03,40,0.00
2021,08,08,03,41,0.00
2021,08,08,03,42,0.00
2021,08,08,03,43,0.00
2021,08,08,03,44,0.00
2021,08,08,03,45,0.00
2021,08,08,03,46,0.00
2021,08,08,03,47,0.00
2021,08,08,03,48,0.00
2021,08,08,03,49,0.00
2021,08,08,03,50,0.00
2021,08,08,03,51,0.00
2021,08,08,03,52,0.00
2021,08,08,03,53,0.00
2021,08,08,03,54,0.00
2021,08,08,03,55,0.00
2021,08,08,03,56,0.00
2021,08,08,03,57,0.00
2021,08,08,03,58,0.00
2021,08,08,03,59,0.00
2021,08,08,04,00,0.00
2021,08,08,04,01,0.00
2021,08,08,04,02,0.00
2021,08,08,04,03,0.00
2021,08,08,04,04,0.00
2021,08,08,04,05,0.00
2021,08,08,04,06,0.00
2021,08,08,04,07,0.00
2021,08,08,04,08,0.00
2021,08,08,04,09,0.00
2021,08,08,04,10,0.00
2021,08,08,04,11,0.00
2021,08,08,04,12,0.00
2021,08,08,04,13,0.00
2021,08,08,04,14,0.00
2021,08,08,04,15,0.00
2021,08,08,04,16,0.00
2021,08,08,04,17,0.00
2021,08,08,04,18,0.00
2021,08,08,04,19,0.00
2021,08,08,04,20,0.00
2021,08,08,04,21,0.00
2021,08,08,04,22,0.00
2021,08,08,04,23,0.00
2021,08,08,04,24,0.00
2021,08,08,04,25,0.00
2021,08,08,04,26,0.00
2021,08,08,04,27,0.00
2021,08,08,04,28,0.00
2021,08,08,04,29,0.00
2021,08,08,04,30,0.00
2021,08,08,04,31,0.00
2021,08,08,04,32,0.00
2021,08,08,04,33,0.00
2021,08,08,04,34,0.00
2021,08,08,04,35,0.00
2021,08,08,04,36,0.00
2021,08,08,04,37,0.00
2021,08,08,04,38,0.00
2021,08,08,04,39,0.00
2021,08,08,04,40,0.00
2021,08,08,04,41,0.00
2021,08,08,04,42,0.00
2021,08,08,04,43,0.00
2021,08,08,04,44,0.00
2021,08,08,04,45,0.00
2021,08,08,04,46,0.00
2021,08,08,04,47,0.00
2021,08,08,04,48,0.00
2021,08,08,04,49,0.00
2021,08,08,04,50,0.00
2021,08,08,04,51,0.00
2021,08,08,04,52,0.00
2021,08,08,04,53,0.00
2021,08,08,04,54,0.00
2021,08,08,04,55,0.00
2021,08,08,04,56,0.00
2021,08,08,04,57,0.00
2021,08,08,04,58,0.00
2021,08,08,04,59,0.00
2021,08,08,05,00,0.00
2021,08,08,05,01,0.00
2021,08,08,05,02,0.00
2021,08,08,05,03,0.00
2021,08,08,05,04,0.00
2021,08,08,05,05,0.00
2021,08,08,05,06,0.00
2021,08,08,05,07,0.00
2021,08,08,05,08,0.00
2021,08,08,05,09,0.00
2021,08,08,05,10,0.00
2021,08,08,05,11,0.00
2021,08,08,05,12,0.00
2021,08,08,05,13,0.00
2021,08,08,05,14,0.00
2021,08,08,05,15,0.00
2021,08,08,05,16,0.00
2021,08,08,05,17,0.00
2021,08,08,05,18,0.00
2021,08,08,05,19,0.00
2021,08,08,05,20,0.00
2021,08,08,05,21,0.00
2021,08,08,05,22,0.00
2021,08,08,05,23,0.00
2021,08,08,05,24,0.00
2021,08,08,05,25,0.00
2021,08,08,05,26,0.00
2021,08,08,05,27,0.00
2021,08,08,05,28,0.00
2021,08,08,05,29,0.00
2021,08,08,05,30,0.00
2021,08,08,05,31,0.00
2021,08,08,05,32,0.00
2021,08,08,05,33,0.00
2021,08,08,05,34,0.00
2021,08,08,05,35,0.00
2021,08,08,05,36,0.00
2021,08,08,05,37,0.00
2021,08,08,05,38,0.00
2021,08,08,05,39,0.00
2021,08,08,05,40,0.00
2021,08,08,05,41,0.00
2021,08,08,05,42,0.00
2021,08,08,05,43,0.00
2021,08,08,05,44,0.00
2021,08,08,05,45,0.00
2021,08,08,05,46,0.00
2021,08,08,05,47,0.00
2021,08,08,05,48,0.00
2021,08,08,05,49,0.00
2021,08,08,05,50,0.00
2021,08,08,05,51,0.00
2021,08,08,05,52,0.00
2021,08,08,05,53,0.00
2021,08,08,05,54,0.00
2021,08,08,05,55,0.00
2021,08,08,05,56,0.00
2021,08,08,05,57,0.00
2021,08,08,05,58,0.00
2021,08,08,05,59,0.00
2021,08,08,06,00,0.00
2021,08,08,06,01,0.00
2021,08,08,06,02,0.00
2021,08,08,06,03,0.00
2021,08,08,06,04,0.00
2021,08,08,06,05,0.20
2021,08,08,06,06,5.00
2021,08,08,06,07,5.00
2021,08,08,06,08,5.00
2021,08,08,06,09,5.00
2021,08,08,06,10,5.00
2021,08,08,06,11,6.70
2021,08,08,06,12,7.00
2021,08,08,06,13,7.60
2021,08,08,06,14,9.00
2021,08,08,06,15,9.00
2021,08,08,06,16,9.00
2021,08,08,06,17,10.80
2021,08,08,06,18,11.00
2021,08,08,06,19,11.00
2021,08,08,06,20,11.50
2021,08,08,06,21,12.00
2021,08,08,06,22,12.00
2021,08,08,06,23,12.00
2021,08,08,06,24,12.00
2021,08,08,06,25,12.00
2021,08,08,06,26,12.00
2021,08,08,06,27,13.30
2021,08,08,06,28,14.00
2021,08,08,06,29,14.00
2021,08,08,06,30,14.40
2021,08,08,06,31,16.00
2021,08,08,06,32,17.00
2021,08,08,06,33,18.00
2021,08,08,06,34,18.80
2021,08,08,06,35,20.90
2021,08,08,06,36,21.00
2021,08,08,06,37,21.70
2021,08,08,06,38,24.10
2021,08,08,06,39,25.00
2021,08,08,06,40,25.80
2021,08,08,06,41,30.30
2021,08,08,06,42,32.30
2021,08,08,06,43,33.80
2021,08,08,06,44,36.20
2021,08,08,06,45,38.40
2021,08,08,06,46,41.70
2021,08,08,06,47,44.30
2021,08,08,06,48,46.90
2021,08,08,06,49,49.80
2021,08,08,06,50,52.20
2021,08,08,06,51,53.70
2021,08,08,06,52,55.80
2021,08,08,06,53,58.30
2021,08,08,06,54,60.70
2021,08,08,06,55,62.50
2021,08,08,06,56,64.30
2021,08,08,06,57,66.60
2021,08,08,06,58,67.00
2021,08,08,06,59,67.00
2021,08,08,07,00,67.00
2021,08,08,07,01,67.00
2021,08,08,07,02,67.00
2021,08,08,07,03,67.00
2021,08,08,07,04,67.20
2021,08,08,07,05,68.60
2021,08,08,07,06,67.00
2021,08,08,07,07,68.00
2021,08,08,07,08,69.00
2021,08,08,07,09,69.00
2021,08,08,07,10,69.90
2021,08,08,07,11,70.00
2021,08,08,07,12,70.00
2021,08,08,07,13,70.00
2021,08,08,07,14,70.00
2021,08,08,07,15,70.00
2021,08,08,07,16,70.00
2021,08,08,07,17,70.00
2021,08,08,07,18,70.00
2021,08,08,07,19,70.00
2021,08,08,07,20,70.00
2021,08,08,07,21,70.00
2021,08,08,07,22,72.00
2021,08,08,07,23,72.50
2021,08,08,07,24,74.90
2021,08,08,07,25,76.60
2021,08,08,07,26,77.00
2021,08,08,07,27,77.00
2021,08,08,07,28,76.90
2021,08,08,07,29,76.00
2021,08,08,07,30,76.00
2021,08,08,07,31,74.70
2021,08,08,07,32,74.00
2021,08,08,07,33,74.10
2021,08,08,07,34,76.20
2021,08,08,07,35,77.00
2021,08,08,07,36,76.50
2021,08,08,07,37,76.00
2021,08,08,07,38,76.00
2021,08,08,07,39,76.90
2021,08,08,07,40,77.00
2021,08,08,07,41,77.70
2021,08,08,07,42,79.90
2021,08,08,07,43,81.00
2021,08,08,07,44,82.60
2021,08,08,07,45,84.10
2021,08,08,07,46,86.40
2021,08,08,07,47,88.70
2021,08,08,07,48,90.50
2021,08,08,07,49,93.60
2021,08,08,07,50,96.60
2021,08,08,07,51,97.90
2021,08,08,07,52,98.00
2021,08,08,07,53,98.00
2021,08,08,07,54,98.00
2021,08,08,07,55,98.00
2021,08,08,07,56,99.60
2021,08,08,07,57,100.00
2021,08,08,07,58,99.50
2021,08,08,07,59,98.00
2021,08,08,08,00,105.20
2021,08,08,08,01,102.10
2021,08,08,08,02,99.70
2021,08,08,08,03,105.00
2021,08,08,08,04,107.00
2021,08,08,08,05,110.60
2021,08,08,08,06,105.80
2021,08,08,08,07,100.10
2021,08,08,08,08,105.60
2021,08,08,08,09,127.20
2021,08,08,08,10,149.00
2021,08,08,08,11,148.90
2021,08,08,08,12,150.50
2021,08,08,08,13,167.80
2021,08,08,08,14,157.70
2021,08,08,08,15,151.60
2021,08,08,08,16,138.10
2021,08,08,08,17,116.30
2021,08,08,08,18,109.80
2021,08,08,08,19,110.50
2021,08,08,08,20,118.10
2021,08,08,08,21,137.40
2021,08,08,08,22,158.30
2021,08,08,08,23,174.00
2021,08,08,08,24,198.60
2021,08,08,08,25,221.00
2021,08,08,08,26,255.20
2021,08,08,08,27,269.20
2021,08,08,08,28,301.10
2021,08,08,08,29,265.70
2021,08,08,08,30,211.90
2021,08,08,08,31,173.40
2021,08,08,08,32,158.30
2021,08,08,08,33,196.30
2021,08,08,08,34,258.40
2021,08,08,08,35,263.60
2021,08,08,08,36,288.90
2021,08,08,08,37,294.00
2021,08,08,08,38,382.10
2021,08,08,08,39,387.00
2021,08,08,08,40,340.30
2021,08,08,08,41,254.90
2021,08,08,08,42,215.50
2021,08,08,08,43,196.60
2021,08,08,08,44,193.60
2021,08,08,08,45,198.50
2021,08,08,08,46,203.70
2021,08,08,08,47,203.70
2021,08,08,08,48,196.80
2021,08,08,08,49,192.40
2021,08,08,08,50,198.90
2021,08,08,08,51,215.30
2021,08,08,08,52,235.30
2021,08,08,08,53,246.20
2021,08,08,08,54,245.10
2021,08,08,08,55,244.00
2021,08,08,08,56,244.00
2021,08,08,08,57,244.60
2021,08,08,08,58,246.00
2021,08,08,08,59,242.80
2021,08,08,09,00,233.30
2021,08,08,09,01,216.90
2021,08,08,09,02,206.40
2021,08,08,09,03,204.00
2021,08,08,09,04,205.40
2021,08,08,09,05,209.60
2021,08,08,09,06,214.90
2021,08,08,09,07,223.40
2021,08,08,09,08,236.10
2021,08,08,09,09,248.80
2021,08,08,09,10,257.00
2021,08,08,09,11,290.80
2021,08,08,09,12,306.60
2021,08,08,09,13,287.90
2021,08,08,09,14,280.50
2021,08,08,09,15,318.60
2021,08,08,09,16,354.20
2021,08,08,09,17,293.50
2021,08,08,09,18,273.20
2021,08,08,09,19,251.30
2021,08,08,09,20,250.80
2021,08,08,09,21,248.80
2021,08,08,09,22,248.50
2021,08,08,09,23,265.30
2021,08,08,09,24,303.00
2021,08,08,09,25,348.50
2021,08,08,09,26,396.00
2021,08,08,09,27,451.20
2021,08,08,09,28,437.30
2021,08,08,09,29,401.60
2021,08,08,09,30,370.60
2021,08,08,09,31,339.90
2021,08,08,09,32,307.30
2021,08,08,09,33,286.90
2021,08,08,09,34,288.00
2021,08,08,09,35,285.90
2021,08,08,09,36,353.60
2021,08,08,09,37,356.30
2021,08,08,09,38,374.00
2021,08,08,09,39,374.00
2021,08,08,09,40,374.00
2021,08,08,09,41,563.00
2021,08,08,09,42,587.60
2021,08,08,09,43,553.10
2021,08,08,09,44,542.00
2021,08,08,09,45,540.00
2021,08,08,09,46,540.00
2021,08,08,09,47,540.00
2021,08,08,09,48,542.90
2021,08,08,09,49,545.50
2021,08,08,09,50,548.10
2021,08,08,09,51,552.10
2021,08,08,09,52,554.00
2021,08,08,09,53,486.00
2021,08,08,09,54,551.80
2021,08,08,09,55,566.00
2021,08,08,09,56,566.00
2021,08,08,09,57,567.10
2021,08,08,09,58,569.90
2021,08,08,09,59,576.30
2021,08,08,10,00,582.30
2021,08,08,10,01,587.50
2021,08,08,10,02,589.80
2021,08,08,10,03,591.60
2021,08,08,10,04,594.90
2021,08,08,10,05,598.50
2021,08,08,10,06,606.40
2021,08,08,10,07,611.50
2021,08,08,10,08,616.70
2021,08,08,10,09,620.10
2021,08,08,10,10,621.00
2021,08,08,10,11,619.30
2021,08,08,10,12,612.80
2021,08,08,10,13,611.40
2021,08,08,10,14,609.10
2021,08,08,10,15,610.40
2021,08,08,10,16,612.70
2021,08,08,10,17,614.80
2021,08,08,10,18,617.30
2021,08,08,10,19,620.00
2021,08,08,10,20,622.90
2021,08,08,10,21,626.50
2021,08,08,10,22,631.80
2021,08,08,10,23,636.10
2021,08,08,10,24,640.00
2021,08,08,10,25,641.00
2021,08,08,10,26,646.30
2021,08,08,10,27,651.20
2021,08,08,10,28,652.00
2021,08,08,10,29,658.50
2021,08,08,10,30,664.80
2021,08,08,10,31,670.00
2021,08,08,10,32,676.20
2021,08,08,10,33,683.50
2021,08,08,10,34,688.40
2021,08,08,10,35,694.50
2021,08,08,10,36,702.50
2021,08,08,10,37,711.60
2021,08,08,10,38,723.30
2021,08,08,10,39,749.80
2021,08,08,10,40,761.00
2021,08,08,10,41,761.00
2021,08,08,10,42,761.00
2021,08,08,10,43,754.30
2021,08,08,10,44,745.00
2021,08,08,10,45,357.10
2021,08,08,10,46,197.80
2021,08,08,10,47,288.00
2021,08,08,10,48,431.90
2021,08,08,10,49,835.00
2021,08,08,10,50,835.00
2021,08,08,10,51,436.40
2021,08,08,10,52,294.00
2021,08,08,10,53,284.50
2021,08,08,10,54,194.40
2021,08,08,10,55,167.90
2021,08,08,10,56,164.20
2021,08,08,10,57,171.80
2021,08,08,10,58,172.30
2021,08,08,10,59,174.60
2021,08,08,11,00,201.40
2021,08,08,11,01,223.50
2021,08,08,11,02,214.00
2021,08,08,11,03,214.00
2021,08,08,11,04,214.00
2021,08,08,11,05,305.80
2021,08,08,11,06,650.00
2021,08,08,11,07,650.00
2021,08,08,11,08,727.10
2021,08,08,11,09,774.20
2021,08,08,11,10,778.80
2021,08,08,11,11,779.20
2021,08,08,11,12,780.00
2021,08,08,11,13,778.50
2021,08,08,11,14,774.40
2021,08,08,11,15,777.70
2021,08,08,11,16,775.70
2021,08,08,11,17,752.20
2021,08,08,11,18,810.00
2021,08,08,11,19,828.00
2021,08,08,11,20,828.00
2021,08,08,11,21,850.40
2021,08,08,11,22,831.90
2021,08,08,11,23,821.20
2021,08,08,11,24,815.20
2021,08,08,11,25,814.00
2021,08,08,11,26,816.10
2021,08,08,11,27,824.60
2021,08,08,11,28,848.80
2021,08,08,11,29,882.00
2021,08,08,11,30,882.00
2021,08,08,11,31,882.00
2021,08,08,11,32,423.50
2021,08,08,11,33,242.20
2021,08,08,11,34,216.90
2021,08,08,11,35,250.00
2021,08,08,11,36,250.00
2021,08,08,11,37,250.00
2021,08,08,11,38,250.00
2021,08,08,11,39,278.90
2021,08,08,11,40,825.50
2021,08,08,11,41,812.50
2021,08,08,11,42,801.00
2021,08,08,11,43,794.20
2021,08,08,11,44,793.00
2021,08,08,11,45,797.90
2021,08,08,11,46,810.20
2021,08,08,11,47,828.40
2021,08,08,11,48,847.00
2021,08,08,11,49,860.90
2021,08,08,11,50,871.80
2021,08,08,11,51,885.50
2021,08,08,11,52,904.00
2021,08,08,11,53,904.00
2021,08,08,11,54,899.50
2021,08,08,11,55,906.60
2021,08,08,11,56,912.00
2021,08,08,11,57,766.60
2021,08,08,11,58,812.00
2021,08,08,11,59,812.00
2021,08,08,12,00,550.20
2021,08,08,12,01,338.10
2021,08,08,12,02,339.00
2021,08,08,12,03,806.50
2021,08,08,12,04,856.20
2021,08,08,12,05,851.00
2021,08,08,12,06,852.20
2021,08,08,12,07,850.20
2021,08,08,12,08,844.80
2021,08,08,12,09,837.50
2021,08,08,12,10,830.00
2021,08,08,12,11,827.30
2021,08,08,12,12,823.40
2021,08,08,12,13,820.30
2021,08,08,12,14,817.30
2021,08,08,12,15,815.70
2021,08,08,12,16,812.70
2021,08,08,12,17,810.00
2021,08,08,12,18,810.00
2021,08,08,12,19,807.80
2021,08,08,12,20,808.80
2021,08,08,12,21,809.00
2021,08,08,12,22,809.00
2021,08,08,12,23,809.00
2021,08,08,12,24,810.90
2021,08,08,12,25,813.50
2021,08,08,12,26,816.70
2021,08,08,12,27,817.80
2021,08,08,12,28,821.00
2021,08,08,12,29,822.40
2021,08,08,12,30,826.40
2021,08,08,12,31,830.40
2021,08,08,12,32,835.10
2021,08,08,12,33,843.30
2021,08,08,12,34,854.00
2021,08,08,12,35,854.00
2021,08,08,12,36,871.50
2021,08,08,12,37,879.40
2021,08,08,12,38,876.90
2021,08,08,12,39,876.20
2021,08,08,12,40,883.80
2021,08,08,12,41,897.00
2021,08,08,12,42,897.20
2021,08,08,12,43,932.20
2021,08,08,12,44,903.70
2021,08,08,12,45,922.80
2021,08,08,12,46,954.00
2021,08,08,12,47,972.00
2021,08,08,12,48,507.90
2021,08,08,12,49,258.00
2021,08,08,12,50,361.40
2021,08,08,12,51,937.50
2021,08,08,12,52,901.00
2021,08,08,12,53,886.00
2021,08,08,12,54,886.00
2021,08,08,12,55,916.30
2021,08,08,12,56,920.50
2021,08,08,12,57,854.00
2021,08,08,12,58,656.50
2021,08,08,12,59,385.00
2021,08,08,13,00,385.00
2021,08,08,13,01,854.80
2021,08,08,13,02,892.80
2021,08,08,13,03,817.00
2021,08,08,13,04,817.00
2021,08,08,13,05,763.60
2021,08,08,13,06,728.00
2021,08,08,13,07,815.70
2021,08,08,13,08,738.80
2021,08,08,13,09,399.80
2021,08,08,13,10,448.00
2021,08,08,13,11,475.00
2021,08,08,13,12,475.00
2021,08,08,13,13,794.30
2021,08,08,13,14,843.60
2021,08,08,13,15,964.50
2021,08,08,13,16,988.00
2021,08,08,13,17,1007.00
2021,08,08,13,18,1007.00
2021,08,08,13,19,617.60
2021,08,08,13,20,580.00
2021,08,08,13,21,753.90
2021,08,08,13,22,1007.20
2021,08,08,13,23,1022.00
2021,08,08,13,24,1027.20
2021,08,08,13,25,951.00
2021,08,08,13,26,980.50
2021,08,08,13,27,1073.60
2021,08,08,13,28,1081.00
2021,08,08,13,29,1081.00
2021,08,08,13,30,1081.00
2021,08,08,13,31,1031.00
2021,08,08,13,32,587.20
2021,08,08,13,33,531.00
2021,08,08,13,34,531.00
2021,08,08,13,35,531.00
2021,08,08,13,36,531.00
2021,08,08,13,37,531.00
2021,08,08,13,38,659.10
2021,08,08,13,39,944.50
2021,08,08,13,40,919.20
2021,08,08,13,41,911.80
2021,08,08,13,42,918.50
2021,08,08,13,43,942.00
2021,08,08,13,44,750.90
2021,08,08,13,45,396.00
2021,08,08,13,46,396.00
2021,08,08,13,47,447.30
2021,08,08,13,48,377.20
2021,08,08,13,49,348.00
2021,08,08,13,50,586.10
2021,08,08,13,51,1102.00
2021,08,08,13,52,708.30
2021,08,08,13,53,466.00
2021,08,08,13,54,463.00
2021,08,08,13,55,417.20
2021,08,08,13,56,441.70
2021,08,08,13,57,443.50
2021,08,08,13,58,484.40
2021,08,08,13,59,485.00
2021,08,08,14,00,746.50
2021,08,08,14,01,761.00
2021,08,08,14,02,761.00
2021,08,08,14,03,761.00
2021,08,08,14,04,1008.00
2021,08,08,14,05,1141.00
2021,08,08,14,06,1131.80
2021,08,08,14,07,1042.20
2021,08,08,14,08,1023.00
2021,08,08,14,09,1023.00
2021,08,08,14,10,1023.00
2021,08,08,14,11,1023.00
2021,08,08,14,12,1023.00
2021,08,08,14,13,981.30
2021,08,08,14,14,884.00
2021,08,08,14,15,615.60
2021,08,08,14,16,396.00
2021,08,08,14,17,396.00
2021,08,08,14,18,834.00
2021,08,08,14,19,827.40
2021,08,08,14,20,822.00
2021,08,08,14,21,815.20
2021,08,08,14,22,811.10
2021,08,08,14,23,807.30
2021,08,08,14,24,804.70
2021,08,08,14,25,802.70
2021,08,08,14,26,802.50
2021,08,08,14,27,802.40
2021,08,08,14,28,802.00
2021,08,08,14,29,802.80
2021,08,08,14,30,800.00
2021,08,08,14,31,799.30
2021,08,08,14,32,798.00
2021,08,08,14,33,796.10
2021,08,08,14,34,793.40
2021,08,08,14,35,793.00
2021,08,08,14,36,792.60
2021,08,08,14,37,791.00
2021,08,08,14,38,790.00
2021,08,08,14,39,787.00
2021,08,08,14,40,786.00
2021,08,08,14,41,786.00
2021,08,08,14,42,785.20
2021,08,08,14,43,781.30
2021,08,08,14,44,780.00
2021,08,08,14,45,780.00
2021,08,08,14,46,779.20
2021,08,08,14,47,778.80
2021,08,08,14,48,776.50
2021,08,08,14,49,774.20
2021,08,08,14,50,771.40
2021,08,08,14,51,770.00
2021,08,08,14,52,768.30
2021,08,08,14,53,767.70
2021,08,08,14,54,765.20
2021,08,08,14,55,763.80
2021,08,08,14,56,765.00
2021,08,08,14,57,763.60
2021,08,08,14,58,759.60
2021,08,08,14,59,758.50
2021,08,08,15,00,756.00
2021,08,08,15,01,755.20
2021,08,08,15,02,757.00
2021,08,08,15,03,756.80
2021,08,08,15,04,757.80
2021,08,08,15,05,755.40
2021,08,08,15,06,752.00
2021,08,08,15,07,752.90
2021,08,08,15,08,754.00
2021,08,08,15,09,751.80
2021,08,08,15,10,751.00
2021,08,08,15,11,750.20
2021,08,08,15,12,747.60
2021,08,08,15,13,748.00
2021,08,08,15,14,747.00
2021,08,08,15,15,745.50
2021,08,08,15,16,751.40
2021,08,08,15,17,754.50
2021,08,08,15,18,757.80
2021,08,08,15,19,761.90
2021,08,08,15,20,759.80
2021,08,08,15,21,756.40
2021,08,08,15,22,750.60
2021,08,08,15,23,745.40
2021,08,08,15,24,747.70
2021,08,08,15,25,747.90
2021,08,08,15,26,747.00
2021,08,08,15,27,752.60
2021,08,08,15,28,757.10
2021,08,08,15,29,749.50
2021,08,08,15,30,751.00
2021,08,08,15,31,745.00
2021,08,08,15,32,735.20
2021,08,08,15,33,733.00
2021,08,08,15,34,730.80
2021,08,08,15,35,729.50
2021,08,08,15,36,731.80
2021,08,08,15,37,743.50
2021,08,08,15,38,752.00
2021,08,08,15,39,752.00
2021,08,08,15,40,752.00
2021,08,08,15,41,752.00
2021,08,08,15,42,752.00
2021,08,08,15,43,752.00
2021,08,08,15,44,752.00
2021,08,08,15,45,752.00
2021,08,08,15,46,752.00
2021,08,08,15,47,752.00
2021,08,08,15,48,752.00
2021,08,08,15,49,752.00
2021,08,08,15,50,308.00
2021,08,08,15,51,160.00
2021,08,08,15,52,279.20
2021,08,08,15,53,726.00
2021,08,08,15,54,726.00
2021,08,08,15,55,726.00
2021,08,08,15,56,726.00
2021,08,08,15,57,702.20
2021,08,08,15,58,696.80
2021,08,08,15,59,701.80
2021,08,08,16,00,703.00
2021,08,08,16,01,695.90
2021,08,08,16,02,684.20
2021,08,08,16,03,676.60
2021,08,08,16,04,669.20
2021,08,08,16,05,661.90
2021,08,08,16,06,657.90
2021,08,08,16,07,655.00
2021,08,08,16,08,649.80
2021,08,08,16,09,650.20
2021,08,08,16,10,652.50
2021,08,08,16,11,654.00
2021,08,08,16,12,654.00
2021,08,08,16,13,650.30
2021,08,08,16,14,651.50
2021,08,08,16,15,621.00
2021,08,08,16,16,554.20
2021,08,08,16,17,377.40
2021,08,08,16,18,390.00
2021,08,08,16,19,569.10
2021,08,08,16,20,633.00
2021,08,08,16,21,631.00
2021,08,08,16,22,633.10
2021,08,08,16,23,633.50
2021,08,08,16,24,628.00
2021,08,08,16,25,628.00
2021,08,08,16,26,627.70
2021,08,08,16,27,620.20
2021,08,08,16,28,616.30
2021,08,08,16,29,613.60
2021,08,08,16,30,591.60
2021,08,08,16,31,601.60
2021,08,08,16,32,601.80
2021,08,08,16,33,598.00
2021,08,08,16,34,598.00
2021,08,08,16,35,596.20
2021,08,08,16,36,592.70
2021,08,08,16,37,589.60
2021,08,08,16,38,587.10
2021,08,08,16,39,584.80
2021,08,08,16,40,581.80
2021,08,08,16,41,577.50
2021,08,08,16,42,575.70
2021,08,08,16,43,571.10
2021,08,08,16,44,565.70
2021,08,08,16,45,560.50
2021,08,08,16,46,557.40
2021,08,08,16,47,554.50
2021,08,08,16,48,551.40
2021,08,08,16,49,548.40
2021,08,08,16,50,547.10
2021,08,08,16,51,545.50
2021,08,08,16,52,539.70
2021,08,08,16,53,535.70
2021,08,08,16,54,531.90
2021,08,08,16,55,529.30
2021,08,08,16,56,526.70
2021,08,08,16,57,523.50
2021,08,08,16,58,520.70
2021,08,08,16,59,517.90
2021,08,08,17,00,515.50
2021,08,08,17,01,513.30
2021,08,08,17,02,511.70
2021,08,08,17,03,508.70
2021,08,08,17,04,506.00
2021,08,08,17,05,504.20
2021,08,08,17,06,501.50
2021,08,08,17,07,499.10
2021,08,08,17,08,496.50
2021,08,08,17,09,493.40
2021,08,08,17,10,491.10